Location: Unspecified
(0.0000°N, 0.0000°E)
Time: 04:37:04
(UTC+00:00)

Vanguard 2 - All Passes

Search period start: 12 December 2017 00:00
Search period end: 22 December 2017 00:00
Orbit: 553 x 2939 km, 32.9° (Epoch: 11 December)

Date Brightness Start Highest point End Pass type
(mag) Time Alt. Az. Time Alt. Az. Time Alt. Az.
12 Dec - 01:08:59 10° WNW 01:16:04 48° SSW 01:27:50 10° SE visible
12 Dec - 03:21:11 10° WSW 03:29:10 21° SSW 03:39:42 10° SSE visible
12 Dec - 05:37:59 10° SSW 05:46:09 15° S 05:55:03 10° SSE daylight
12 Dec - 07:51:44 10° SSW 08:04:23 23° SSE 08:15:51 10° ESE daylight
12 Dec - 10:03:32 10° SW 10:19:45 47° SSE 10:31:05 10° E daylight
12 Dec - 12:16:55 10° WSW 12:31:41 71° NW 12:40:30 10° NE daylight
12 Dec - 14:35:15 10° WNW 14:41:02 16° NW 14:45:30 10° N daylight
12 Dec - 23:19:07 10° NW 23:24:33 66° NE 23:33:36 10° ESE visible
13 Dec - 01:27:46 10° W 01:34:46 35° SSW 01:45:44 10° SE visible
13 Dec - 03:41:28 10° SW 03:48:43 17° S 03:57:42 10° SSE visible
13 Dec - 05:57:38 10° SSW 06:06:20 16° S 06:15:35 10° SE daylight
13 Dec - 08:09:48 10° SSW 08:23:56 28° SSE 08:36:15 10° ESE daylight
13 Dec - 10:21:35 10° SW 10:38:29 60° SSE 10:49:50 10° ENE daylight
13 Dec - 12:35:55 10° WSW 12:49:45 52° NW 12:58:15 10° NE daylight
13 Dec - 21:32:00 10° N 21:34:30 14° NE 21:37:27 10° ENE night (unlit)
13 Dec - 23:37:04 10° WNW 23:42:38 80° SW 23:52:04 10° SE visible
14 Dec - 01:46:58 10° WSW 01:53:41 26° SSW 02:03:28 10° SSE visible
14 Dec - 04:02:04 10° SW 04:08:29 15° S 04:16:02 10° SSE visible
14 Dec - 06:16:32 10° SSW 06:26:24 17° SSE 06:36:44 10° SE daylight
14 Dec - 08:27:44 10° SSW 08:43:13 35° SSE 08:56:11 10° E daylight
14 Dec - 10:39:48 10° SW 10:57:01 77° SE 11:08:17 10° ENE daylight
14 Dec - 12:55:21 10° WSW 13:07:45 37° NW 13:15:46 10° NNE daylight
14 Dec - 21:48:37 10° NNW 21:52:26 25° NE 21:57:32 10° E night (unlit)
14 Dec - 23:55:21 10° WNW 00:00:58 51° SSW 00:10:13 10° SE visible
15 Dec - 02:06:41 10° WSW 02:12:49 19° SSW 02:21:04 10° SSE visible
15 Dec - 04:22:32 10° SSW 04:28:27 13° S 04:35:08 10° SSE visible
15 Dec - 06:34:52 10° SSW 06:46:17 21° SSE 06:57:57 10° ESE daylight
15 Dec - 08:45:38 10° SW 09:02:15 44° SSE 09:15:37 10° E daylight
15 Dec - 10:58:14 10° SW 11:15:22 84° NW 11:26:26 10° NE daylight
15 Dec - 13:15:23 10° W 13:25:49 27° NW 13:33:03 10° NNE daylight
15 Dec - 22:06:00 10° NW 22:10:19 45° NE 22:16:40 10° ESE night (unlit)
16 Dec - 00:14:00 10° W 00:19:30 34° SSW 00:28:04 10° SE visible
16 Dec - 02:26:59 10° SW 02:32:09 15° S 02:38:33 10° SSE visible
16 Dec - 04:42:16 10° SSW 04:48:29 13° S 04:55:26 10° SSE visible
16 Dec - 06:52:53 10° SSW 07:05:54 25° SSE 07:18:51 10° ESE daylight
16 Dec - 09:03:37 10° SW 09:21:04 55° SSE 09:34:39 10° ENE daylight
16 Dec - 11:16:58 10° WSW 11:33:35 65° NW 11:44:22 10° NE daylight
16 Dec - 13:36:13 10° WNW 13:44:01 18° NW 13:49:57 10° N daylight
16 Dec - 22:23:46 10° NW 22:28:18 81° NE 22:35:16 10° ESE night (unlit)
17 Dec - 00:33:05 10° WSW 00:38:15 24° SSW 00:45:39 10° SSE visible
17 Dec - 02:47:57 10° SSW 02:51:41 12° S 02:55:58 10° SSE visible
17 Dec - 05:01:05 10° SSW 05:08:30 15° SSE 05:16:46 10° SE visible
17 Dec - 07:10:45 10° SSW 07:25:13 31° SSE 07:39:15 10° E daylight
17 Dec - 09:21:41 10° SW 09:39:42 69° SE 09:53:19 10° ENE daylight
17 Dec - 11:36:06 10° WSW 11:51:43 50° NW 12:02:05 10° NE daylight
17 Dec - 13:58:25 10° WNW 14:02:29 12° NW 14:05:58 10° NNW daylight
17 Dec - 20:36:03 10° N 20:38:22 14° NE 20:40:57 10° ENE night (unlit)
17 Dec - 22:41:54 10° WNW 22:46:27 58° SSW 22:53:28 10° SE night (unlit)
18 Dec - 00:52:48 10° SW 00:57:11 17° SSW 01:02:55 10° SSE visible
18 Dec - 03:09:37 10° S 03:11:25 10° S 03:13:19 10° S visible
18 Dec - 05:19:15 10° SSW 05:28:20 17° SSE 05:38:29 10° SE visible
18 Dec - 07:28:34 10° SSW 07:44:17 39° SSE 07:59:07 10° E daylight
18 Dec - 09:39:56 10° SW 09:58:10 86° SE 10:11:41 10° NE daylight
18 Dec - 11:55:42 10° W 12:09:52 37° NW 12:19:38 10° NNE daylight
18 Dec - 20:52:53 10° NNW 20:56:22 28° NE 21:00:35 10° E night (unlit)
18 Dec - 23:00:26 10° W 23:04:49 34° SSW 23:11:18 10° SE night (unlit)
19 Dec - 01:13:30 10° SSW 01:16:19 12° SSW 01:19:33 10° S visible
19 Dec - 03:30:37 10° S 03:31:16 10° S 03:31:56 10° S visible
19 Dec - 05:37:05 10° SSW 05:47:56 21° SSE 05:59:59 10° ESE daylight
19 Dec - 07:46:25 10° SW 08:03:07 49° SSE 08:18:29 10° ENE daylight
19 Dec - 09:58:27 10° WSW 10:16:30 77° NW 10:29:47 10° NE daylight
19 Dec - 12:15:55 10° W 12:28:08 28° NW 12:36:58 10° NNE daylight
19 Dec - 21:10:26 10° NW 21:14:20 55° NE 21:19:23 10° ESE night (unlit)
19 Dec - 23:19:27 10° WSW 23:23:25 21° SSW 23:28:46 10° SSE night (unlit)
20 Dec - 03:47:57 10° S 03:51:08 11° SSE 03:54:35 10° SSE visible
20 Dec - 05:54:48 10° SSW 06:07:14 27° SSE 06:20:58 10° ESE daylight
20 Dec - 08:04:21 10° SW 08:21:46 62° SE 08:37:27 10° ENE daylight
20 Dec - 10:17:16 10° WSW 10:34:47 61° NW 10:47:42 10° NE daylight
20 Dec - 12:36:51 10° WNW 12:46:36 20° NW 12:54:04 10° N daylight
20 Dec - 21:28:24 10° WNW 21:32:24 73° SSW 21:37:41 10° SE night (unlit)
20 Dec - 23:39:17 10° SW 23:42:09 14° SSW 23:45:38 10° S visible
21 Dec - 04:05:16 10° S 04:10:53 13° SSE 04:17:15 10° SE visible
21 Dec - 06:12:28 10° SSW 06:26:16 34° SSE 06:41:23 10° E daylight
21 Dec - 08:22:26 10° SW 08:40:17 76° SE 08:56:03 10° ENE daylight
21 Dec - 10:36:29 10° WSW 10:53:04 48° NW 11:05:25 10° NNE daylight
21 Dec - 12:58:48 10° WNW 13:05:19 14° NNW 13:10:43 10° N daylight
21 Dec - 19:39:33 10° NNW 19:42:24 18° NNE 19:45:17 10° E visible
21 Dec - 21:46:48 10° W 21:50:36 37° SSW 21:55:34 10° SE night (unlit)
